Weather in Cleveland

United States     41°29′57″N   81°41′37″W
temp.,
°C
wind,
m/s
gust,
m/s
humid.,
%
clouds,
%
prec.,
mm/h
press.,
hPa
HPBL,
m
7 may, fri
fri723:00+8ne5686100 1.2 1016265
02:00+6ne3394100 5.9 1014226
05:00+6ene2390100 5.5 1013303
08:00+6ne3587100 5.6 1014700
11:00+7n3582100 0.1 1015731
14:00+8nnw44719 0.3 1014765
17:00+8n12665 0.0 1013449
20:00+9w1268100 0.2 1012176
8 may, sat
sat823:00+8nw898163 0.6 1012780
02:00+6wnw7875100 0.8 10131154
05:00+5wnw7976100 0.3 10141296
08:00+6nw6882100 0.8 1016894
11:00+6nw678398 0.3 1018785
14:00+7nw4578100 0.3 1019790
17:00+8wnw3369100 0.1 1019787
20:00+8e1167100 0.1 1019111
9 may, sun
sun923:00+7sse2373100 0.0 1019114
02:00+7ssw3685100 0.3 1019254
05:00+6s3493100 0.9 1017213
08:00+6se5893100 2.6 1016837
11:00+5ese61194100 8.0 1012566
14:00+6e61193100 16.4 1009638
17:00+6ene6995100 6.3 1007459
20:00+6ne71093100 8.8 1008607
10 may, mon
mon1023:00+7nne81188100 0.6 1010974
02:00+7nne7108491 0.7 1012888
05:00+7n578841 0.1 1014465
08:00+7n57775 0.1 1016579
11:00+8nw56662 0.0 1018719
14:00+9wnw675913 0.0 10201102
17:00+10nw565438 0.0 10191154
20:00+9nne3466100 0.1 1020642
11 may, tue
tue1123:00+8nne5666100 0.0 1022527
02:00+7n466379 0.0 1023464
05:00+6n46625 0.0 1024542
08:00+7nw67695 0.0 1025884
11:00+7nw68605 0.0 10271037
14:00+9nw7115311 0.0 10271623
17:00+10nnw49501 0.0 10271307
20:00+10wsw35610 0.0 1026150